Location: Newark
(51.4095°N, 2.7311°W)
Time: 20:28:41
(UTC+00:00)

ISS - Visible Passes

Search period start: 16 July 2019 00:00
Search period end: 26 July 2019 00:00
Orbit: 409 x 418 km, 51.6° (Epoch: 17 July)

Date Brightness Start Highest point End Pass type
(mag) Time Alt. Az. Time Alt. Az. Time Alt. Az.
16 Jul -3.8 01:06:38 10° W 01:09:59 84° N 01:13:19 10° E visible
16 Jul -3.8 02:43:21 10° W 02:46:38 57° SSW 02:49:54 10° ESE visible
16 Jul -1.8 21:07:00 10° SSE 21:08:04 11° SE 21:09:09 10° ESE visible
16 Jul -3.5 22:40:55 10° SW 22:44:07 44° SSE 22:47:19 10° E visible
17 Jul -3.8 00:17:21 10° W 00:20:42 86° N 00:24:02 10° E visible
17 Jul -3.9 01:54:05 10° W 01:57:24 74° SSW 02:00:43 10° ESE visible
17 Jul -3.1 21:51:56 10° SW 21:54:57 31° SSE 21:57:57 10° E visible
17 Jul -3.9 23:28:04 10° WSW 23:31:25 85° SSE 23:34:45 10° E visible
18 Jul -3.9 01:04:47 10° W 01:08:08 87° S 01:11:27 10° E visible
18 Jul -3.1 02:41:35 10° W 02:44:37 33° SSW 02:47:38 10° SE visible
18 Jul -2.5 21:03:09 10° SSW 21:05:48 22° SE 21:08:28 10° E visible
18 Jul -3.9 22:38:48 10° WSW 22:42:09 71° SSE 22:45:28 10° E visible
19 Jul -3.8 00:15:29 10° W 00:18:50 86° N 00:22:10 10° E visible
19 Jul -3.6 01:52:13 10° W 01:55:26 46° SSW 01:58:37 10° SE visible
19 Jul -1.8 03:30:09 10° WSW 03:31:30 12° SW 03:32:50 10° SSW visible
19 Jul -3.7 21:49:36 10° WSW 21:52:52 55° SSE 21:56:10 10° E visible
19 Jul -3.8 23:26:11 10° W 23:29:31 84° N 23:32:51 10° E visible
20 Jul -3.9 01:02:54 10° W 01:06:12 62° SSW 01:09:07 13° ESE visible
20 Jul -1.9 02:40:05 10° W 02:45:53 - SSE 02:41:12 15° WSW visible
20 Jul -3.3 21:00:29 10° SW 21:03:39 40° SSE 21:06:49 10° E visible
20 Jul -3.8 22:36:50 10° W 22:40:12 88° N 22:43:33 10° E visible
21 Jul -4.0 00:13:34 10° W 00:16:55 78° SSW 00:18:02 38° ESE visible
21 Jul -1.4 01:50:28 10° W 01:50:46 12° W 01:50:46 12° W visible
21 Jul -3.9 21:47:31 10° WSW 21:50:52 82° SSE 21:54:12 10° E visible
21 Jul -3.9 23:24:14 10° W 23:27:35 89° SSE 23:29:25 25° E visible
22 Jul -1.9 01:01:00 10° W 01:02:11 19° W 01:02:11 19° W visible
22 Jul -3.8 20:58:13 10° WSW 21:01:33 67° SSE 21:04:52 10° E visible
22 Jul -3.8 22:34:53 10° W 22:38:14 85° N 22:41:11 13° E visible
23 Jul -3.0 00:11:36 10° W 00:13:59 38° WSW 00:13:59 38° WSW visible
23 Jul -3.8 21:45:31 10° W 21:48:53 84° N 21:52:13 10° E visible
23 Jul -3.9 23:22:14 10° W 23:25:34 66° SSW 23:25:55 60° SSE visible
24 Jul -3.8 20:56:09 10° W 20:59:31 90° SSE 21:02:51 10° E visible
24 Jul -3.9 22:32:53 10° W 22:36:13 81° SSW 22:37:57 26° ESE visible
25 Jul -1.6 00:09:43 10° W 00:10:45 17° W 00:10:45 17° W visible
25 Jul -3.8 21:43:29 10° W 21:46:51 88° N 21:50:01 11° E visible
25 Jul -3.0 23:20:14 10° W 23:22:50 36° SW 23:22:50 36° SW visible
